Other Public Products
Issued by NWS Grand Forks, ND

Home | Current Version | Previous Version | Graphics & Text | Print | Product List | Glossary On
Versions: 1 2 3 4 5 6 7 8 9 10 11 12 13 14 15 16 17 18 19 20 21 22 23 24 25 26 27 28 29 30 31 32 33 34 35 36 37 38 39 40 41 42 43 44 45 46 47 48 49 50
000
FPUS83 KFGF 241110
OPUFGF
PRAIRIE TO PINES WEATHER ROUNDUP
NATIONAL WEATHER SERVICE EASTERN NORTH DAKOTA/GRAND FORKS ND
600 AM CDT WED MAY 24 2017

 **SATELLITE DATA USED TO AUGMENT SKY COVER AT AUTOMATED STATIONS**
 *****  WEATHER ACROSS EASTERN NORTH DAKOTA  *****

CITY           SKY/WX    TMP DP  RH WIND       PRES   REMARKS
GRAND FORKS    FAIR      39  38  96 CALM      29.85F
GRAND FORKS AF FAIR      37  37  99 SW3       29.84F
GRAND CITY NWS NOT AVBL
BUXTON         NOT AVBL
DEVILS LAKE    FAIR      42  39  89 CALM      29.83F
FARGO          FOG       37  37 100 N7        29.85S VSB 3/4
WAHPETON ARPT  CLOUDY    45  43  93 N5        29.84S
$$

 *****  WEATHER ACROSS CENTRAL AND WESTERN NORTH DAKOTA  *****

CITY           SKY/WX    TMP DP  RH WIND       PRES   REMARKS
JAMESTOWN      FOG       35  34  96 CALM      29.83F VSB<1/4
BISMARCK       FAIR      35  33  92 E3        29.82F
MINOT          FAIR      51  38  60 S13       29.76F
MINOT AFB      FAIR      49  38  65 S13       29.75F
GARRISON         N/A     44  38  79 S9        29.78F
WILLISTON      FAIR      52  36  54 S17G25    29.67F
DICKINSON      FAIR      40  33  76 S14       29.75F
HETTINGER      FAIR      41  33  73 SE8       29.79F
$$

 *****  OTHER OBSERVATIONS NORTHEAST NORTH DAKOTA  *****

CITY           SKY/WX    TMP DP  RH WIND       PRES   REMARKS
WALHALLA       NOT AVBL
LANGDON        FAIR      41  41 100 S9        29.83F
CAVALIER       FAIR      43  39  87 S3        29.84S
GRAFTON        FAIR      39  39 100 CALM      29.86F
CANDO          NOT AVBL
FORT TOTTEN      N/A     43  39  85 SE3       29.95S
ROLLA          FAIR      43  36  75 SW6       29.80F
RUGBY          NOT AVBL
 ***** THE ABOVE OBSERVATIONS ARE NON NWS ARE NOT QUALITY
        CONTROLLED AND MAY MIS-REPORT RAIN FOR SNOW...
$$

 *****  OTHER OBSERVATIONS SOUTHEAST NORTH DAKOTA *****

CITY           SKY/WX    TMP DP  RH WIND       PRES   REMARKS
COOPERSTOWN    FOG       34  34 100 CALM      29.85F VSB<1/4
VALLEY CITY    FAIR      37  37 100 N3        29.86F FOG
OAKES          NOT AVBL
GWINNER        PTSUNNY   41  41 100 MISG      29.84F
SHEYENNE NWR     N/A     35  35 100 CALM      29.95S
BUFFALO        NOT AVBL
WYNDMERE         N/A     45  43  93 CALM        N/A
 ***** THE ABOVE OBSERVATIONS ARE NON NWS ARE NOT QUALITY
       CONTROLLED AND MAY MIS-REPORT RAIN FOR SNOW...
$$

  *****  WEATHER ACROSS NORTHERN MINNESOTA  *****

CITY           SKY/WX    TMP DP  RH WIND       PRES   REMARKS
FLAG ISLAND    FAIR      50  41  71 CALM      29.85S
WARROAD        FAIR      37  34  87 CALM      29.87S FOG
ROSEAU         FAIR      37  34  87 CALM      29.86F
HALLOCK        FAIR      43  39  87 SE7       29.85S
THF RVR FALLS  FAIR      39  38  96 CALM      29.86F
HALSTAD          N/A     36  36  99 CALM        N/A
FOSSTON        FAIR      34  34 100 CALM      29.86S FOG
BAUDETTE       FOG       33  33 100 CALM      29.86F VSB 1/4
WASKISH        FAIR      37  37 100 CALM      29.86F
CROOKSTON      FAIR      37  37 100 CALM      29.86F FOG
$$
  *****  WEATHER ACROSS CENTRAL AND WEST MINNESOTA  *****

CITY           SKY/WX    TMP DP  RH WIND       PRES   REMARKS
BEMIDJI        FOG       32  32 100 CALM      29.85F VSB<1/4
PARK RAPIDS    FAIR      43  38  82 NE5       29.84F
WADENA         FAIR      43  41  93 N5        29.83F
DETROIT LAKES  FAIR      41  41 100 E3        29.85F
MOORHEAD       FAIR      39  37  93 NE3       29.85F
FERGUS FALLS   FAIR      45  45 100 CALM      29.83F
ELBOW LAKE     CLOUDY    46  45  97 E5        29.84S
MORRIS MN      CLOUDY    45  45 100 N3        29.82F
STAPLES        CLOUDY    46  45  93 N3        29.84S
WHEATON        CLOUDY    45  43  93 CALM      29.86S
$$
  *****  WEATHER ELSEWHERE ACROSS MINNESOTA  *****

CITY           SKY/WX    TMP DP  RH WIND       PRES   REMARKS
DULUTH         MOCLDY    46  44  93 NE6       29.82S
INTRNTL FALLS  FOG       32  30  92 CALM      29.86F VSB 1/2
ELY            FAIR      34  34 100 CALM      29.86S
CLOQUET        FAIR      45  43  93 CALM      29.83S
BRAINERD       MOCLDY    48  46  93 N6        29.84S
HIBBING        FAIR      34  34 100 N5        29.85S
ALEXANDRIA     CLOUDY    48  46  93 NE5       29.84S
SAINT CLOUD    CLOUDY    48  45  89 N6        29.82S
MINNEAPOLIS    FAIR      47  42  83 NE9       29.78S
$$

  *****  WEATHER ACROSS SOUTH DAKOTA  *****

CITY           SKY/WX    TMP DP  RH WIND       PRES   REMARKS
SIOUX FALLS    MOCLDY    45  45 100 N8        29.82S
BROOKINGS      CLOUDY    42  41  96 CALM      29.82F
WATERTOWN      MOCLDY    41  40  96 N5        29.82F
HURON          FAIR      34  34 100 CALM      29.84F FOG
SISSETON         N/A     45  44  97 N3        29.83F
ABERDEEN       FOG       38  35  89 NE3       29.84F VSB 1/2
MITCHELL       FAIR      39  38  96 NW6       29.85S
PIERRE         FAIR      36  33  89 SW6       29.84F
MOBRIDGE       FAIR      35  32  88 CALM      29.81F FOG
RAPID CITY     FAIR      37  33  85 SE6       29.81F
$$

  *****  SOME WEATHER IN NEARBY STATES *****

CITY           SKY/WX    TMP DP  RH WIND       PRES   REMARKS
GLASGOW MT     MOCLDY    56  36  47 SE21      29.48F
GREAT FALLS MT FAIR      66  39  37 SW18      29.45F
CHEYENNE WY    FAIR      41  32  70 SW14      29.88F
SCOTTSBLUFF NE FAIR      38  34  85 E9        29.85F
OMAHA NE       MOCLDY    50  44  80 NW13      29.76F
DES MOINES IA  LGT RAIN  53  50  89 N10       29.67F
DAVENPORT IA   FOG       49  48  97 N8        29.63R VSB 3/4
CHICAGO IL     LGT RAIN  54  52  93 NE10      29.59F FOG
EAU CLAIRE WI  CLOUDY    48  43  82 NE6       29.74F
LA CROSSE WI   CLOUDY    52  49  89 CALM      29.71S
$$

  *****  SOME NATIONAL WEATHER *****

CITY           SKY/WX    TMP DP  RH WIND       PRES   REMARKS
LA GUARDIA NY  CLOUDY    58  53  84 NE5       29.74R
RALEIGH NC     CLOUDY    65  64  97 CALM      29.68R
ATLANTA GA     CLOUDY    66  65  96 S7        29.62S
NEW ORLEANS LA MOCLDY    69  64  84 W8        29.66S
OKLAHOMA CITY  FAIR      48  44  86 NW9       29.85S
ALBUQUERQUE NM FAIR      52  33  48 N9        30.06F
SALT LAKE CITY FAIR      62  41  46 SE12      29.89F
LOS ANGELES CA CLOUDY    58  57  97 W5        29.88S
BOISE ID       FAIR      62  44  51 CALM      29.76S
SEATTLE WA     MOCLDY    49  39  68 S8        30.06F
$$

*** WEATHER ACROSS MANITOBA...SASKATCHEWAN AND ONTARIO ***
                ***ONTARIO***

CITY           SKY/WX    TMP DP  RH WIND       PRES   REMARKS
GERALDTON      PTCLDY    34  32  93 E3        29.89S
THUNDER BAY    PTCLDY    37  37 100 W2        29.86S
SIOUX LOOKOUT  CLEAR     34  34 100 S2        29.87S
TORONTO        PTSUNNY   57  50  77 NE8       29.70S
BIG TROUT LK   CLEAR     37  30  75 SE5       29.88F
PICKLE LAKE    PTCLDY    39  30  70 SE6       29.89
DRYDEN         CLEAR     39  39 100 E3        29.86S
KENORA         NOT AVBL
$$
                *** MANITOBA***

CITY           SKY/WX    TMP DP  RH WIND       PRES   REMARKS
BRANDON        PTCLDY    46  37  71 SW7       29.76F
DAUPHIN        CLEAR     57  36  44 SW18G29   29.68F
ISLAND LAKE    MOCLDY    48  34  57 SE7       29.76F
PILOT MOUND      N/A     37  34  87 S10         N/A
THE PAS        PTCLDY    55  39  54 SE16      29.51F
THOMPSON       MOCLDY    54  37  54 S6        29.56F
WINNIPEG       PTCLDY    43  39  87 S8        29.81F
LYNN LAKE      MOCLDY    54  41  62 S7        29.41F
CHURCHILL      LGT RAIN  41  37  87 S15       29.54F
GILLAM         CLOUDY    52  36  54 S9        29.64F
$$
                ***SASKATCHEWAN***

CITY           SKY/WX    TMP DP  RH WIND       PRES   REMARKS
ESTEVAN        PTCLDY    50  39  66 S16G28    29.66F
KINDERSLEY     PTCLDY    57  43  58 S20       29.18F
LLOYDMINSTER   CLOUDY    59  46  63 S15G23    29.03F
PRINCE ALBERT  MOCLDY    59  37  44 S13G22    29.32F
REGINA         MOCLDY    54  32  43 S24G36    29.49F
YORKTON          N/A     50  36  57 S12       29.59F


USA.gov is the U.S. government's official web portal to all federal, state and local government web resources and services.